Location: ???? ????
(41.4149°N, 22.8816°E)
Time: 14:02:24
(UTC+00:00)

Cosmos 2360 - Pass Details

Date: 14 July 2020
Orbit: 844 x 858 km, 70.8° (Epoch: 03 August)

Event Time Altitude Azimuth Distance (km) Brightness Sun altitude
Rises 00:53:33 0° 336° (NNW) 3,440 7.8 -19.2°
Reaches altitude 10° 00:56:01 10° 337° (NNW) 2,500 7.1 -18.9°
Maximum altitude 01:01:47 83° 66° (ENE) 869 4.3 -18.3°
Drops below altitude 10° 01:07:30 10° 155° (SSE) 2,482 6.4 -17.7°
Enters shadow 01:09:38 - 156° (SSE) 3,296 7.0 -17.4°
